Location: Doschendorf
(50.0069°N, 11.0602°E)
Time: 21:54:12
(UTC+00:00)

NOAA 12 - Pass Details

Date: 21 February 2020
Orbit: 795 x 815 km, 98.5° (Epoch: 05 April)

Event Time Altitude Azimuth Distance (km) Brightness Sun altitude
Rises 18:23:34 0° 213° (SSW) 3,311 7.7 -16.8°
Reaches altitude 10° 18:26:47 10° 234° (SW) 2,390 7.3 -17.3°
Maximum altitude 18:30:04 17° 273° (W) 1,976 7.2 -17.8°
Drops below altitude 10° 18:33:24 10° 312° (NW) 2,409 7.3 -18.3°
Sets 18:36:40 0° 332° (NNW) 3,350 7.8 -18.8°
